Location: Altenst�hlen
(53.5567°N, 8.9425°E)
Time: 17:21:15
(UTC+00:00)

Cosmos 1570 Rocket - Pass Details

Date: 23 October 2019
Orbit: 763 x 788 km, 74.1° (Epoch: 14 November)

Event Time Altitude Azimuth Distance (km) Brightness Sun altitude
Rises 18:27:44 0° 186° (S) 3,263 7.2 -20.9°
Reaches altitude 10° 18:30:10 10° 181° (S) 2,341 6.4 -21.3°
Enters shadow 18:34:59 49° 119° (ESE) 1,010 4.2 -22.0°
